Regional Weather Roundup
Issued by NWS

Home | Current Version | Previous Version | Text Only | Print | Product List | Glossary On
Versions: 1 2 3 4 5 6 7 8 9 10 11 12 13 14 15 16 17 18 19 20 21 22 23 24 25 26 27 28 29 30 31 32 33 34 35 36 37 38 39 40 41 42 43 44 45 46 47 48 49 50
000
ASUS46 KLOX 031712
RWRCA

SOUTHERN CALIFORNIA WEATHER ROUNDUP
NATIONAL WEATHER SERVICE OXNARD CALIFORNIA
1000 AM PDT SUN MAY 03 2015

NOTE: "FAIR" INDICATES FEW OR NO CLOUDS BELOW 12,000 FEET WITH NO
SIGNIFICANT WEATHER AND/OR OBSTRUCTIONS TO VISIBILITY.

  -  STATIONS PRECEEDED BY AN ASTERISK (*) ARE NOT NWS OR FAA
     STATIONS AND ARE NOT SUBJECT TO NWS AND FAA QUALITY CONTROL.

CAZ041-042-087-031800-
LA AND ORANGE COUNTY COASTAL AREAS


CITY           SKY/WX    TMP DP  RH WIND       PRES   REMARKS
L.A. DOWNTOWN  MOSUNNY   68  53  58 CALM      29.92S
L.A. AIRPORT   MOSUNNY   63  54  72 W7        29.93S
LONG BEACH     CLOUDY    66  53  63 W5        29.93R

CITY           SKY/WX    TMP DP  RH WIND       PRES   REMARKS
AVALON           N/A     63 N/A N/A MISG        N/A
FULLERTON      CLOUDY    66  32  28 SE5       29.92S
*GETTY CENTER    N/A     63  52  67 SE5         N/A
HAWTHORNE      PTSUNNY   67  53  61 SW7       29.93S
*LOS ALAMITOS  PTSUNNY   65  53  65 S6        29.93R
*REDONDO BEACH   N/A     64  56  73 CALM      29.93S
SANTA ANA      MOSUNNY   66  52  59 SW3       29.93R
STA MONICA APT MOSUNNY   67  53  61 VRB3      29.93S
TORRANCE       CLOUDY    66  57  72 VRB7      29.94R
*UCLA            N/A     64  50  59 E5        29.90F

$$

CAZ547-548-048-031800-
LA COUNTY VALLEYS AND INLAND EMPIRE


CITY           SKY/WX    TMP DP  RH WIND       PRES   REMARKS
BURBANK        SUNNY     65  50  58 S5        29.92S
VAN NUYS       SUNNY     64  50  60 CALM      29.92S

CITY           SKY/WX    TMP DP  RH WIND       PRES   REMARKS
CORONA AIRPORT MOSUNNY   64  54  70 CALM      29.93S
*CHATSWORTH      N/A     66  51  59 CALM      29.91S
CHINO          PTSUNNY   63  52  67 CALM      29.94S
MARCH AFB      SUNNY     65  52  62 VRB3      29.92S
*NORTHRIDGE      N/A     64  48  55 S2          N/A
ONTARIO        MOSUNNY   63  52  67 W8        29.93R
*PASADENA        N/A     68  55  64 E1          N/A
POMONA         MOSUNNY   63  50  63 W7        29.96R
RIVERSIDE      MOSUNNY   64  52  64 VRB5      29.93S
SAN BERNARDINO MOSUNNY   63  48  59 SW3       29.93S HAZE
*WHITEMAN AP   NOT AVBL
*WOODLAND HILL   N/A     66  50  55 NE3         N/A

$$

CAZ054-055-031800-
LA AND SAN BERNARDINO COUNTY MOUNTAINS


CITY           SKY/WX    TMP DP  RH WIND       PRES   REMARKS
*BIG BEAR AIRP SUNNY     59  27  29 SW7       30.07S
*CHILAO          N/A     66  26  22 SW7         N/A
SANDBERG       SUNNY     67  30  25 S9        29.99S
*WARM SPRINGS    N/A     68  39  35 CALM        N/A

$$

CAZ028-029-059-060-099-031800-
ANTELOPE VALLEY AND SURROUNDING AREAS


CITY           SKY/WX    TMP DP  RH WIND       PRES   REMARKS
LANCASTER      SUNNY     76  30  18 SW13      29.90S
PALMDALE       SUNNY     76  27  16 SW14      29.91S

CITY           SKY/WX    TMP DP  RH WIND       PRES   REMARKS
29 PALMS       MOSUNNY   80  28  15 NW9       29.94S
BARSTOW/DAGGET SUNNY     79  26  14 W12       29.87S
BISHOP         SUNNY     73  27  18 CALM      29.90F
CHINA LAKE     SUNNY     75  23  14 CALM      29.86R
EDWARDS AFB    SUNNY     75  29  18 SW9       29.88R
MOJAVE         FAIR      75  25  15 W14G20    29.90S
NEEDLES        SUNNY     88  40  18 S13       29.83S
VICTORVILLE    SUNNY     75  25  15 W13       29.92S

$$

CAZ039-040-031800-
VENTURA AND SANTA BARBARA COUNTY COAST


CITY           SKY/WX    TMP DP  RH WIND       PRES   REMARKS
CAMARILLO      MOSUNNY   62  51  67 CALM      29.94S
NWS OXNARD       N/A     62  51  68 CALM      29.94R
OXNARD AIRPORT MOSUNNY   61  50  67 W10       29.95R
*POINT MUGU    PTSUNNY   66  52  60 NW6       29.95S
SBA APT/GOLETA CLOUDY    58  49  72 SW5       29.96R
*SANTA BARBARA   N/A     60  49  66 CALM      30.03S
*VENTURA         N/A     60  51  70 W3        29.56S

$$

CAZ044-045-031800-
VENTURA COUNTY VALLEYS


CITY           SKY/WX    TMP DP  RH WIND       PRES   REMARKS
*SIMI VALLEY     N/A     62  53  71 CALM      29.89F
*OJAI            N/A     65  51  61 W3        29.88S
*FILLMORE        N/A     64  55  74 CALM      29.83F

$$

CAZ053-031800-
VENTURA COUNTY MOUNTAINS


CITY           SKY/WX    TMP DP  RH WIND       PRES   REMARKS
*LOCKWOOD VLY    N/A     63  25  23 MISG        N/A
*ROSE VALLEY     N/A     70  36  28 MISG        N/A

$$

CAZ034-035-036-031800-
CENTRAL COAST AND SANTA YNEZ VALLEY


CITY           SKY/WX    TMP DP  RH WIND       PRES   REMARKS
SAN LUIS OBISP CLOUDY    55  47  74 SE7       29.95R
SANTA MARIA    PTSUNNY   60  46  59 VRB3      29.96R

CITY           SKY/WX    TMP DP  RH WIND       PRES   REMARKS
*CAL POLY SLO    N/A     55  50  82 E5          N/A
*LOMPOC        CLOUDY    61  46  59 W6        29.96S
*PISMO BEACH     N/A     56  49  79 SW1       29.96S
*SANTA YNEZ    PTSUNNY   55  45  67 CALM      29.95S

$$

CAZ037-038-051-031800-
SAN LUIS OBISPO COUNTY INTERIOR AND CUYAMA VALLEY


CITY           SKY/WX    TMP DP  RH WIND       PRES   REMARKS
*CUYAMA          N/A     69  34  27 NW7       29.79S
PASO ROBLES    MOSUNNY   57  45  64 S8        29.93R

$$

CAZ032-033-061-031800-
SOUTHERN DESERTS


CITY           SKY/WX    TMP DP  RH WIND       PRES   REMARKS
BLYTHE         SUNNY     84  48  28 VRB5      29.82S
IMPERIAL       SUNNY     79  57  46 NW5       29.79R
PALM SPRINGS   MOSUNNY   85  36  17 NE3       29.82S
THERMAL        SUNNY     84  52  33 E7        29.78S

$$

ELSEWHERE ACROSS THE WESTERN UNITED STATES AND MEXICO


CITY           SKY/WX    TMP DP  RH WIND       PRES   REMARKS
DENVER, CO     PTSUNNY   73  32  22 NE9       29.99R
GRAND CANYON,  SUNNY     64  34  32 SW9       30.13S
HONOLULU, HI   MOSUNNY   72  61  68 E12       30.02R
KAHULUI, MAUI  MOSUNNY   73  63  68 NE10      30.03R
LAKE TAHOE, CA SUNNY     60  30  32 VRB5      30.01F
LAS VEGAS, NV  MOSUNNY   80  29  15 SW8       29.83R
MAMMOTH LAKES, FAIR      61  25  25 SE3       30.04F
MEXICO CITY, M MOSUNNY   70  48  46 W7        30.31F
PHOENIX, AZ    MOSUNNY   86  44  23 SE9       29.88S
PORTLAND, OR   MOSUNNY   55  43  63 VRB6      29.98F
RENO, NV       MOSUNNY   66  29  24 CALM      29.95F
SALT LAKE CITY PTSUNNY   73  37  27 S9        29.91R
SAN DIEGO, CA  CLOUDY    65  51  60 SW5       29.95R
SAN FRANCISCO, MOSUNNY   59  48  67 NE7       29.90R
SAN JOSE, CA   MOSUNNY   60  47  61 SE7       29.89S
SEATTLE, WA    SUNNY     57  43  59 N8        30.01F
TIJUANA, MEX   CLOUDY    64  50  59 W5        29.96S

$$

STATION/POSITION TIME  TEMP    WIND        PRES    VSBY  WAVE
                       AIR SEA DIR/SP/G                  HT/PER
                 (UTC) (F)     (DEG/KT/KT) (MB)    (MI)  (FT/S)
POINT ARGUELLO B NOT AVBL
WEST SANTA BARBA 1700   55 56  310/  4/  6 1014.1R         6/17
POINT CONCEPTION NOT AVBL
EAST SANTA BARBA NOT AVBL
SANTA MONICA BAY 1700   57     330/ 12       N/A



USA.gov is the U.S. government's official web portal to all federal, state and local government web resources and services.